Location: Unspecified
(48.2082°N, 0.0000°E)
Time: 22:35:49
(UTC+00:00)

Tiros 1 despin weight - Pass Details

Date: 20 June 2019
Orbit: 594 x 642 km, 48.2° (Epoch: 15 July)

Event Time Altitude Azimuth Distance (km) Brightness Sun altitude
Rises 05:55:54 0° 283° (WNW) 2,832 ? 16.4°
Reaches altitude 10° 05:58:31 10° 269° (W) 1,929 ? 16.8°
Maximum altitude 06:02:04 24° 216° (SW) 1,247 ? 17.3°
Drops below altitude 10° 06:05:38 10° 162° (SSE) 1,934 ? 17.9°
Sets 06:08:15 0° 148° (SSE) 2,841 ? 18.3°
